This demonstration page uses our WeatherBlox Daily Observations layout. Learn more.

Left ArrowRight Arrow

Hourly Observations for September 26, 2016

Temp ( °F °C ) Dew Point ( °F °C ) Humidity (%) Winds ( mph kmh ) Pressure ( in mb ) Visibility ( mi km ) Precip ( " mm )
12:51 am 00:51 Cloudy 74 23.3 46 7.8 37 37 E 13 20 30.03 1017 10 16.0934 0 0
1:51 am 01:51 Clear 73 22.8 45 7.2 37 37 SE 14 22 30.03 1017 10 16.0934 0 0
2:51 am 02:51 Clear 72 22.2 46 7.8 40 40 SE 13 20 30.02 1017 10 16.0934 0 0
3:51 am 03:51 Clear 70 21.1 50 10 49 49 SSE 13 20 30.03 1017 10 16.0934 0 0
4:51 am 04:51 Clear 68 20 49 9.4 51 51 ESE 3 6 30.04 1017 10 16.0934 0 0
5:51 am 05:51 Clear 69 20.6 45 7.2 42 42 E 9 15 30.05 1018 10 16.0934 0 0
6:51 am 06:51 Cloudy with Light Rain 68 20 47 8.3 47 47 ESE 8 13 30.08 1019 10 16.0934 0 0.0254
7:51 am 07:51 Sunny 69 20.6 48 8.9 47 47 SSE 3 6 30.09 1019 10 16.0934 0 0.0254
8:51 am 08:51 Cloudy with Light Rain 67 19.4 53 11.7 61 61 S 10 17 30.12 1020 10 16.0934 0 0.0254
9:51 am 09:51 Cloudy 68 20 52 11.1 57 57 SSE 6 9 30.11 1020 10 16.0934 0.01 0.254
10:51 am 10:51 Sunny 72 22.2 51 10.6 48 48 SE 7 11 30.09 1019 10 16.0934 0 0
11:51 am 11:51 Sunny 76 24.4 47 8.3 36 36 SE 17 28 30.06 1018 10 16.0934 0 0
12:09 pm 12:09 Mostly Sunny 72 22.2 47 8.3 41 41 S 22 35 30.06 1018 10 16.0934 0 0
12:51 pm 12:51 Mostly Cloudy 71 21.7 45 7.2 39 39 S 20 31 30.07 1018 10 16.0934 0 0
1:51 pm 13:51 Cloudy 71 21.7 45 7.2 39 39 S 16 26 30.06 1018 10 16.0934 0 0
2:51 pm 14:51 Cloudy 72 22.2 43 6.1 35 35 S 14 22 30.06 1018 10 16.0934 0 0
3:51 pm 15:51 Cloudy with Light Rain 65 18.3 51 10.6 61 61 SSE 17 28 30.09 1019 9 14.48406 0 0.0254
4:51 pm 16:51 Cloudy with Light Rain 60 15.6 52 11.1 75 75 SSE 14 22 30.11 1020 10 16.0934 0 0.0254
5:51 pm 17:51 Partly Cloudy 61 16.1 50 10 67 67 SSE 10 17 30.11 1020 10 16.0934 0 0.0254
6:51 pm 18:51 Cloudy 61 16.1 52 11.1 72 72 E 5 7 30.1 1019 10 16.0934 0 0
7:51 pm 19:51 Mostly Cloudy 61 16.1 52 11.1 72 72 ESE 6 9 30.11 1020 10 16.0934 0 0
8:51 pm 20:51 Clear 61 16.1 52 11.1 72 72 ESE 6 9 30.12 1020 10 16.0934 0 0
9:51 pm 21:51 Mostly Cloudy 62 16.7 52 11.1 70 70 SE 5 7 30.12 1020 10 16.0934 0 0
10:51 pm 22:51 Cloudy 62 16.7 48 8.9 60 60 SSE 9 15 30.11 1020 10 16.0934 0 0
11:51 pm 23:51 Cloudy 62 16.7 48 8.9 60 60 ESE 8 13 30.1 1019 10 16.0934 0 0

Powered by AerisWeather